TimeEDT,TemperatureF,Dew PointF,Humidity,Sea Level PressureIn,VisibilityMPH,Wind Direction,Wind SpeedMPH,Gust SpeedMPH,PrecipitationIn,Events,Conditions,WindDirDegrees,DateUTC
12:15 AM,51.8,30.2,44,29.99,10.0,SSE,9.2,17.3,N/A,,Overcast,150,2013-04-19 04:15:00
12:35 AM,51.4,31.1,46,29.98,10.0,SSE,10.4,17.3,N/A,,Overcast,150,2013-04-19 04:35:00
12:55 AM,51.8,32.0,47,29.98,10.0,SSE,11.5,20.7,N/A,,Overcast,160,2013-04-19 04:55:00
1:15 AM,52.3,33.8,49,29.98,10.0,South,11.5,20.7,N/A,,Overcast,170,2013-04-19 05:15:00
1:35 AM,52.7,35.8,53,29.97,10.0,SSE,8.1,17.3,N/A,,Overcast,160,2013-04-19 05:35:00
1:55 AM,52.7,37.4,56,29.96,10.0,SSE,9.2,-,N/A,,Overcast,160,2013-04-19 05:55:00
2:15 AM,52.7,39.6,61,29.96,10.0,SSE,5.8,-,N/A,,Overcast,160,2013-04-19 06:15:00
2:55 AM,52.5,40.8,64,29.94,10.0,South,11.5,21.9,N/A,,Overcast,170,2013-04-19 06:55:00
3:15 AM,51.8,40.5,65,29.94,10.0,SE,6.9,-,N/A,,Overcast,130,2013-04-19 07:15:00
3:35 AM,51.8,41.4,68,29.93,10.0,SSE,10.4,17.3,N/A,,Overcast,150,2013-04-19 07:35:00
3:55 AM,52.0,42.8,71,29.93,10.0,SE,8.1,-,N/A,,Overcast,140,2013-04-19 07:55:00
4:15 AM,52.0,43.0,71,29.92,10.0,SSE,10.4,16.1,N/A,,Overcast,160,2013-04-19 08:15:00
4:35 AM,52.3,44.1,73,29.91,10.0,SSE,9.2,-,N/A,,Overcast,160,2013-04-19 08:35:00
4:55 AM,52.7,44.6,74,29.91,10.0,SSE,10.4,-,N/A,,Overcast,160,2013-04-19 08:55:00
5:15 AM,52.7,44.8,74,29.91,10.0,SSE,8.1,-,N/A,,Overcast,160,2013-04-19 09:15:00
5:35 AM,52.7,44.8,74,29.91,10.0,SSE,8.1,-,N/A,,Overcast,150,2013-04-19 09:35:00
5:55 AM,53.1,45.5,75,29.91,10.0,SSE,9.2,18.4,N/A,,Overcast,160,2013-04-19 09:55:00
6:15 AM,53.1,45.7,76,29.91,10.0,South,9.2,-,N/A,,Overcast,170,2013-04-19 10:15:00
6:35 AM,53.6,46.4,77,29.90,10.0,SSE,12.7,19.6,N/A,,Overcast,160,2013-04-19 10:35:00
6:55 AM,53.8,46.6,77,29.91,10.0,South,10.4,18.4,N/A,,Overcast,170,2013-04-19 10:55:00
7:15 AM,54.5,47.3,77,29.90,10.0,SSE,11.5,-,N/A,,Overcast,160,2013-04-19 11:15:00
7:35 AM,54.5,47.3,77,29.90,10.0,SSE,9.2,-,N/A,,Overcast,150,2013-04-19 11:35:00
7:55 AM,55.0,47.3,75,29.90,10.0,South,11.5,16.1,N/A,,Overcast,170,2013-04-19 11:55:00
8:15 AM,55.4,47.3,74,29.89,10.0,South,9.2,17.3,N/A,,Overcast,170,2013-04-19 12:15:00
8:35 AM,56.1,47.8,74,29.88,10.0,South,11.5,16.1,N/A,,Overcast,170,2013-04-19 12:35:00
8:55 AM,56.7,47.8,72,29.88,10.0,South,10.4,23.0,N/A,,Overcast,170,2013-04-19 12:55:00
9:15 AM,57.2,48.4,72,29.87,10.0,South,11.5,20.7,N/A,,Overcast,190,2013-04-19 13:15:00
9:35 AM,57.7,48.4,71,29.86,10.0,SSE,8.1,-,N/A,,Overcast,160,2013-04-19 13:35:00
9:55 AM,58.8,48.7,69,29.85,10.0,South,8.1,-,N/A,,Overcast,180,2013-04-19 13:55:00
10:15 AM,60.1,49.3,67,29.84,10.0,South,19.6,26.5,N/A,,Overcast,180,2013-04-19 14:15:00
10:35 AM,61.7,49.8,65,29.83,10.0,South,16.1,24.2,N/A,,Overcast,180,2013-04-19 14:35:00
10:55 AM,61.2,50.0,67,29.83,10.0,South,13.8,23.0,N/A,,Overcast,170,2013-04-19 14:55:00
11:35 AM,66.2,50.2,56,29.81,10.0,South,13.8,27.6,N/A,,Mostly Cloudy,170,2013-04-19 15:35:00
11:55 AM,66.9,49.5,53,29.79,10.0,South,16.1,28.8,N/A,,Overcast,170,2013-04-19 15:55:00
12:15 PM,66.7,49.1,53,29.78,10.0,SSE,17.3,25.3,N/A,,Mostly Cloudy,160,2013-04-19 16:15:00
12:35 PM,69.1,48.2,47,29.77,10.0,South,19.6,28.8,N/A,,Mostly Cloudy,170,2013-04-19 16:35:00
12:55 PM,68.9,47.7,47,29.75,10.0,South,19.6,35.7,N/A,,Scattered Clouds,180,2013-04-19 16:55:00
1:15 PM,68.5,47.3,47,29.74,10.0,South,17.3,35.7,N/A,,Scattered Clouds,170,2013-04-19 17:15:00
1:35 PM,70.3,47.3,44,29.73,10.0,South,16.1,25.3,N/A,,Scattered Clouds,170,2013-04-19 17:35:00
1:55 PM,70.5,47.5,44,29.72,10.0,SSE,15.0,26.5,N/A,,Scattered Clouds,160,2013-04-19 17:55:00
2:15 PM,71.4,47.5,42,29.71,10.0,South,16.1,25.3,N/A,,Scattered Clouds,170,2013-04-19 18:15:00
2:35 PM,71.2,48.2,44,29.70,10.0,South,15.0,26.5,N/A,,Mostly Cloudy,180,2013-04-19 18:35:00
2:55 PM,70.5,48.6,46,29.69,10.0,South,15.0,27.6,N/A,,Overcast,170,2013-04-19 18:55:00
3:15 PM,71.1,49.5,46,29.69,10.0,South,17.3,32.2,N/A,,Overcast,180,2013-04-19 19:15:00
3:35 PM,70.7,50.0,48,29.69,10.0,South,16.1,25.3,N/A,,Overcast,180,2013-04-19 19:35:00
3:55 PM,70.3,50.9,50,29.68,10.0,South,13.8,25.3,N/A,,Overcast,170,2013-04-19 19:55:00
4:15 PM,68.9,50.4,52,29.67,10.0,South,10.4,20.7,N/A,,Overcast,180,2013-04-19 20:15:00
4:35 PM,69.1,50.5,52,29.65,10.0,SSE,16.1,29.9,N/A,,Mostly Cloudy,160,2013-04-19 20:35:00
4:55 PM,68.5,51.1,54,29.65,10.0,South,17.3,21.9,N/A,,Scattered Clouds,170,2013-04-19 20:55:00
5:15 PM,68.5,51.8,55,29.62,10.0,South,17.3,28.8,N/A,,Clear,180,2013-04-19 21:15:00
5:35 PM,68.9,51.8,54,29.61,10.0,South,24.2,31.1,N/A,,Scattered Clouds,170,2013-04-19 21:35:00
5:55 PM,68.5,51.8,55,29.56,10.0,South,19.6,31.1,N/A,,Scattered Clouds,170,2013-04-19 21:55:00
6:15 PM,68.9,51.6,54,29.57,10.0,South,16.1,26.5,N/A,,Clear,170,2013-04-19 22:15:00
6:35 PM,68.5,51.8,55,29.57,10.0,South,12.7,18.4,N/A,,Mostly Cloudy,170,2013-04-19 22:35:00
6:55 PM,68.5,52.3,56,29.59,10.0,South,16.1,33.4,N/A,,Mostly Cloudy,180,2013-04-19 22:55:00
7:15 PM,68.5,53.1,58,29.59,10.0,South,10.4,25.3,N/A,,Overcast,180,2013-04-19 23:15:00
7:35 PM,68.4,53.6,59,29.58,10.0,South,15.0,24.2,N/A,,Mostly Cloudy,170,2013-04-19 23:35:00
7:55 PM,67.6,53.6,61,29.58,10.0,South,13.8,23.0,N/A,,Scattered Clouds,180,2013-04-19 23:55:00
8:15 PM,67.6,54.0,61,29.57,10.0,South,20.7,25.3,N/A,,Overcast,180,2013-04-20 00:15:00
8:35 PM,67.3,54.5,63,29.57,10.0,South,20.7,27.6,N/A,,Mostly Cloudy,180,2013-04-20 00:35:00
8:55 PM,67.1,54.5,64,29.56,10.0,South,18.4,27.6,N/A,,Mostly Cloudy,190,2013-04-20 00:55:00
9:15 PM,66.6,55.4,67,29.56,10.0,South,16.1,21.9,N/A,Rain,Light Rain,180,2013-04-20 01:15:00
9:35 PM,66.4,55.2,67,29.55,10.0,South,12.7,-,N/A,,Overcast,170,2013-04-20 01:35:00
9:55 PM,65.3,55.6,71,29.54,10.0,South,19.6,27.6,N/A,Rain,Rain,170,2013-04-20 01:55:00
10:15 PM,63.5,56.5,78,29.52,10.0,South,17.3,24.2,N/A,Rain,Light Rain,180,2013-04-20 02:15:00
10:35 PM,63.1,57.7,83,29.53,7.0,South,10.4,16.1,N/A,Rain,Heavy Rain,190,2013-04-20 02:35:00
10:55 PM,62.1,57.7,86,29.54,10.0,WSW,10.4,17.3,N/A,Rain,Light Rain,250,2013-04-20 02:55:00